X-CUBESAT

Last updated on Tue Feb 05 2019 00:02:08 GMT+0000 (Coordinated Universal Time)

1 42707U 98067LQ 19034.96093632 .08699549 12398-4 73318-3 0 9997 2 42707 51.6151 225.9993 0006204 290.2952 69.7401 16.38701088 98669

Satellite not in orbit